UAL2202 KBZN-KORD

Flight info

Callsign UAL2202
Flight time N/A
Altitude 35000
Route BIL DPR HSTIN Q156 ZZIPR FYTTE7
Aircraft A320/M-SDE3FGHIRWY/LB1

Departure

Time 2026-04-23 00:21
Airport Bozeman Yellowstone International Airport (KBZN)

Arrival

Time N/A
Airport Chicago O'Hare International Airport (KORD)
Time Latitude Longitude Altitude Speed Heading
2026-04-22 23:39 45.78000 -111.16198 4481 ft 0 kts 225°
2026-04-23 00:12 45.78007 -111.16188 4484 ft 4 kts 228°
2026-04-23 00:12 45.78023 -111.16157 4481 ft 4 kts 246°
2026-04-23 00:12 45.78029 -111.16122 4481 ft 4 kts 293°
2026-04-23 00:12 45.78022 -111.16107 4481 ft 1 kts 316°
2026-04-23 00:13 45.78021 -111.16106 4481 ft 0 kts 316°
2026-04-23 00:16 45.78035 -111.16125 4488 ft 10 kts 316°
2026-04-23 00:17 45.78097 -111.16153 4484 ft 10 kts 27°
2026-04-23 00:17 45.78161 -111.16157 4481 ft 10 kts 324°
2026-04-23 00:17 45.78196 -111.16205 4483 ft 11 kts 314°
2026-04-23 00:17 45.78295 -111.16350 4481 ft 17 kts 315°
2026-04-23 00:18 45.78366 -111.16450 4481 ft 14 kts 315°
2026-04-23 00:18 45.78414 -111.16514 4481 ft 14 kts 317°
2026-04-23 00:18 45.78490 -111.16617 4483 ft 17 kts 315°
2026-04-23 00:18 45.78585 -111.16753 4481 ft 15 kts 316°
2026-04-23 00:19 45.78656 -111.16821 4485 ft 11 kts 354°
2026-04-23 00:19 45.78718 -111.16766 4481 ft 10 kts 44°
2026-04-23 00:19 45.78731 -111.16747 4483 ft 0 kts 45°
2026-04-23 00:20 45.78736 -111.16741 4481 ft 4 kts 45°
2026-04-23 00:20 45.78782 -111.16668 4487 ft 13 kts 58°
2026-04-23 00:20 45.78756 -111.16563 4483 ft 12 kts 133°
2026-04-23 00:20 45.78648 -111.16415 4485 ft 50 kts 137°
2026-04-23 00:21 45.77991 -111.15504 4482 ft 141 kts 132°
2026-04-23 00:21 45.77447 -111.14781 4493 ft 170 kts 132°
2026-04-23 00:21 45.76547 -111.13696 5126 ft 158 kts 147°
2026-04-23 00:21 45.75728 -111.12636 5828 ft 165 kts 143°
2026-04-23 00:22 45.74874 -111.11376 6276 ft 189 kts 140°
2026-04-23 00:22 45.73928 -111.09951 6686 ft 212 kts 140°
2026-04-23 00:22 45.72857 -111.08338 7123 ft 235 kts 139°
2026-04-23 00:22 45.71672 -111.06567 7572 ft 258 kts 140°
2026-04-23 00:23 45.70354 -111.04618 7895 ft 281 kts 139°
2026-04-23 00:23 45.68950 -111.02560 8285 ft 300 kts 139°
2026-04-23 00:23 45.67475 -111.00400 8971 ft 307 kts 137°
2026-04-23 00:23 45.66305 -110.97787 9491 ft 321 kts 111°
2026-04-23 00:24 45.65747 -110.94681 10030 ft 324 kts 101°
2026-04-23 00:24 45.65408 -110.91416 10376 ft 344 kts 97°
2026-04-23 00:24 45.65150 -110.87912 10529 ft 366 kts 96°
2026-04-23 00:24 45.64897 -110.84177 10681 ft 386 kts 96°
2026-04-23 00:25 45.64793 -110.80300 11131 ft 395 kts 86°
2026-04-23 00:25 45.65225 -110.76407 11741 ft 398 kts 76°
2026-04-23 00:25 45.65856 -110.72538 12375 ft 402 kts 76°
2026-04-23 00:25 45.66472 -110.68629 12852 ft 405 kts 77°
2026-04-23 00:26 45.67082 -110.64679 13434 ft 408 kts 77°
2026-04-23 00:26 45.67696 -110.60695 14011 ft 411 kts 77°
2026-04-23 00:26 45.68308 -110.56735 14577 ft 414 kts 78°
2026-04-23 00:26 45.68938 -110.52651 15130 ft 417 kts 78°
2026-04-23 00:27 45.69560 -110.48640 15670 ft 420 kts 78°
2026-04-23 00:27 45.70177 -110.44542 16228 ft 423 kts 81°
2026-04-23 00:27 45.70510 -110.40355 16767 ft 426 kts 85°
2026-04-23 00:27 45.70790 -110.36122 17365 ft 428 kts 86°
2026-04-23 00:28 45.71069 -110.31875 17983 ft 430 kts 86°
2026-04-23 00:28 45.71346 -110.27603 18536 ft 432 kts 86°
2026-04-23 00:28 45.71624 -110.23319 19083 ft 433 kts 86°
2026-04-23 00:28 45.71902 -110.19013 19611 ft 435 kts 86°
2026-04-23 00:29 45.72176 -110.14694 20124 ft 437 kts 86°
2026-04-23 00:29 45.72450 -110.10356 20618 ft 439 kts 86°
2026-04-23 00:29 45.72726 -110.05991 21066 ft 441 kts 86°
2026-04-23 00:29 45.73000 -110.01613 21488 ft 443 kts 86°
2026-04-23 00:30 45.73277 -109.97202 21883 ft 445 kts 86°
2026-04-23 00:30 45.73554 -109.92781 22282 ft 448 kts 86°
2026-04-23 00:30 45.73829 -109.88318 22673 ft 450 kts 86°
2026-04-23 00:30 45.74101 -109.83846 23033 ft 453 kts 86°
2026-04-23 00:31 45.74375 -109.79326 23345 ft 456 kts 86°
2026-04-23 00:31 45.74646 -109.74853 23656 ft 458 kts 86°
2026-04-23 00:31 45.74923 -109.70240 23988 ft 460 kts 86°
2026-04-23 00:31 45.75195 -109.65676 24333 ft 461 kts 86°
2026-04-23 00:32 45.75466 -109.61099 24673 ft 462 kts 86°
2026-04-23 00:32 45.75730 -109.56566 24992 ft 463 kts 87°
2026-04-23 00:32 45.76000 -109.51900 25328 ft 464 kts 86°
2026-04-23 00:32 45.76263 -109.47351 25704 ft 464 kts 87°
2026-04-23 00:33 45.76528 -109.42766 26262 ft 460 kts 87°
2026-04-23 00:33 45.76790 -109.38223 26844 ft 455 kts 87°
2026-04-23 00:33 45.77047 -109.33724 27449 ft 451 kts 87°
2026-04-23 00:33 45.77300 -109.29261 28048 ft 446 kts 88°
2026-04-23 00:34 45.77547 -109.24861 28657 ft 442 kts 88°
2026-04-23 00:34 45.77790 -109.20488 29263 ft 438 kts 88°
2026-04-23 00:34 45.78026 -109.16159 29790 ft 435 kts 88°
2026-04-23 00:34 45.78260 -109.11848 30174 ft 434 kts 88°
2026-04-23 00:35 45.78495 -109.07533 30513 ft 435 kts 89°
2026-04-23 00:35 45.78730 -109.03214 30843 ft 436 kts 89°
2026-04-23 00:35 45.78965 -108.98881 31173 ft 437 kts 89°
2026-04-23 00:35 45.79201 -108.94530 31507 ft 438 kts 89°
2026-04-23 00:36 45.79433 -108.90177 31842 ft 439 kts 89°
2026-04-23 00:36 45.79664 -108.85806 32179 ft 440 kts 89°
2026-04-23 00:36 45.79894 -108.81426 32517 ft 441 kts 89°
2026-04-23 00:36 45.80121 -108.77042 32852 ft 442 kts 89°
2026-04-23 00:37 45.80345 -108.72636 33197 ft 443 kts 89°
2026-04-23 00:37 45.80567 -108.68220 33528 ft 445 kts 90°
2026-04-23 00:37 45.80773 -108.63846 33795 ft 444 kts 92°
2026-04-23 00:37 45.80637 -108.59444 34050 ft 440 kts 100°
2026-04-23 00:38 45.80303 -108.55084 34305 ft 441 kts 100°
2026-04-23 00:38 45.79966 -108.50703 34515 ft 442 kts 100°
2026-04-23 00:38 45.79634 -108.46318 34586 ft 446 kts 100°
2026-04-23 00:39 45.78952 -108.37345 34586 ft 458 kts 100°
2026-04-23 00:39 45.78255 -108.28222 34555 ft 462 kts 100°
2026-04-23 00:40 45.77544 -108.19128 34523 ft 463 kts 100°
2026-04-23 00:40 45.76824 -108.09968 34494 ft 463 kts 100°
2026-04-23 00:41 45.76096 -108.00800 34466 ft 463 kts 100°
2026-04-23 00:41 45.75363 -107.91633 34468 ft 463 kts 100°
2026-04-23 00:42 45.74615 -107.82467 34468 ft 464 kts 101°
2026-04-23 00:42 45.73857 -107.73290 34464 ft 464 kts 101°
2026-04-23 00:43 45.73100 -107.64113 34454 ft 464 kts 101°
2026-04-23 00:43 45.72331 -107.54934 34464 ft 464 kts 101°
2026-04-23 00:44 45.71556 -107.45767 34458 ft 464 kts 101°
2026-04-23 00:44 45.70784 -107.36615 34459 ft 463 kts 101°
2026-04-23 00:45 45.70003 -107.27465 34457 ft 462 kts 101°
2026-04-23 00:45 45.69207 -107.18356 34455 ft 461 kts 101°
2026-04-23 00:46 45.68409 -107.09313 34455 ft 461 kts 102°
2026-04-23 00:46 45.67606 -107.00228 34449 ft 460 kts 102°
2026-04-23 00:47 45.66792 -106.91144 34445 ft 460 kts 102°
2026-04-23 00:47 45.65976 -106.82076 34442 ft 459 kts 102°
2026-04-23 00:48 45.65152 -106.73024 34441 ft 459 kts 103°
2026-04-23 00:48 45.64321 -106.63979 34438 ft 459 kts 103°
2026-04-23 00:49 45.63485 -106.54942 34432 ft 458 kts 103°
2026-04-23 00:49 45.62640 -106.45931 34421 ft 458 kts 103°
2026-04-23 00:50 45.61785 -106.36929 34419 ft 457 kts 103°
2026-04-23 00:50 45.60929 -106.27923 34407 ft 456 kts 103°
2026-04-23 00:51 45.60081 -106.19005 34404 ft 456 kts 103°
2026-04-23 00:51 45.59215 -106.10030 34407 ft 456 kts 104°
2026-04-23 00:52 45.58343 -106.01067 34402 ft 456 kts 104°
2026-04-23 00:52 45.57463 -105.92114 34397 ft 455 kts 104°
2026-04-23 00:53 45.56567 -105.83165 34400 ft 456 kts 104°
2026-04-23 00:53 45.55672 -105.74211 34405 ft 456 kts 104°
2026-04-23 00:54 45.54773 -105.65243 34404 ft 456 kts 104°
2026-04-23 00:54 45.53864 -105.56274 34403 ft 456 kts 104°
2026-04-23 00:55 45.52947 -105.47319 34405 ft 456 kts 104°
2026-04-23 00:55 45.52029 -105.38365 34406 ft 457 kts 104°
2026-04-23 00:56 45.51093 -105.29409 34409 ft 457 kts 104°
2026-04-23 00:56 45.50155 -105.20500 34414 ft 457 kts 105°
2026-04-23 00:57 45.49208 -105.11535 34421 ft 457 kts 105°
2026-04-23 00:57 45.48258 -105.02575 34429 ft 457 kts 105°
2026-04-23 00:58 45.47300 -104.93631 34436 ft 457 kts 105°
2026-04-23 00:58 45.46333 -104.84693 34440 ft 456 kts 105°
2026-04-23 00:59 45.45354 -104.75762 34436 ft 456 kts 105°
2026-04-23 00:59 45.44377 -104.66906 34436 ft 456 kts 105°
2026-04-23 01:00 45.43394 -104.57970 34434 ft 456 kts 105°
2026-04-23 01:00 45.42399 -104.49053 34430 ft 456 kts 105°
2026-04-23 01:01 45.41398 -104.40126 34424 ft 457 kts 105°
2026-04-23 01:01 45.40388 -104.31190 34416 ft 457 kts 105°
2026-04-23 01:02 45.39372 -104.22242 34411 ft 458 kts 105°
2026-04-23 01:02 45.38346 -104.13280 34414 ft 459 kts 105°
2026-04-23 01:03 45.37310 -104.04316 34410 ft 460 kts 105°
2026-04-23 01:03 45.36265 -103.95339 34408 ft 461 kts 105°
2026-04-23 01:04 45.35389 -103.87861 34400 ft 461 kts 105°
2026-04-23 01:04 45.33798 -103.74360 34394 ft 462 kts 106°
2026-04-23 01:05 45.32729 -103.65343 34388 ft 463 kts 106°
2026-04-23 01:05 45.31646 -103.56323 34386 ft 463 kts 106°
2026-04-23 01:06 45.30557 -103.47299 34384 ft 463 kts 106°
2026-04-23 01:06 45.29465 -103.38272 34381 ft 464 kts 106°
2026-04-23 01:07 45.28364 -103.29253 34380 ft 464 kts 106°
2026-04-23 01:07 45.27243 -103.20225 34383 ft 464 kts 106°
2026-04-23 01:08 45.26126 -103.11250 34385 ft 464 kts 106°
2026-04-23 01:08 45.24993 -103.02219 34384 ft 465 kts 106°
2026-04-23 01:09 45.23854 -102.93198 34389 ft 465 kts 106°
2026-04-23 01:09 45.22714 -102.84167 34387 ft 465 kts 106°
2026-04-23 01:10 45.21568 -102.75138 34385 ft 466 kts 106°
2026-04-23 01:10 45.20409 -102.66097 34385 ft 466 kts 107°
2026-04-23 01:11 45.19245 -102.57068 34386 ft 466 kts 107°
2026-04-23 01:11 45.18066 -102.48026 34381 ft 466 kts 107°
2026-04-23 01:12 45.16883 -102.38990 34383 ft 466 kts 107°
2026-04-23 01:12 45.15704 -102.30005 34388 ft 467 kts 107°
2026-04-23 01:13 45.14501 -102.20967 34396 ft 467 kts 107°
2026-04-23 01:13 45.13294 -102.11922 34398 ft 467 kts 107°
2026-04-23 01:14 45.12079 -102.02872 34400 ft 467 kts 107°
2026-04-23 01:14 45.10864 -101.93834 34399 ft 467 kts 107°
2026-04-23 01:15 45.09642 -101.84812 34398 ft 467 kts 107°
2026-04-23 01:15 45.08412 -101.75786 34402 ft 466 kts 107°
2026-04-23 01:16 45.07232 -101.66760 34406 ft 467 kts 105°
2026-04-23 01:16 45.06290 -101.57654 34411 ft 468 kts 104°
2026-04-23 01:17 45.05428 -101.48606 34403 ft 467 kts 104°
2026-04-23 01:17 45.04510 -101.39532 34403 ft 465 kts 105°
2026-04-23 01:18 45.03541 -101.30508 34401 ft 463 kts 105°
2026-04-23 01:18 45.02560 -101.21509 34402 ft 463 kts 105°
2026-04-23 01:19 45.01588 -101.12519 34402 ft 462 kts 105°
2026-04-23 01:19 45.00617 -101.03545 34400 ft 462 kts 105°
2026-04-23 01:20 44.99649 -100.94584 34401 ft 461 kts 105°
2026-04-23 01:20 44.98669 -100.85623 34393 ft 461 kts 105°
2026-04-23 01:21 44.97669 -100.76667 34394 ft 462 kts 106°
2026-04-23 01:21 44.96657 -100.67704 34386 ft 462 kts 106°
2026-04-23 01:22 44.95654 -100.58793 34391 ft 463 kts 106°
2026-04-23 01:22 44.94643 -100.49821 34393 ft 463 kts 106°
2026-04-23 01:23 44.93612 -100.40843 34386 ft 463 kts 106°
2026-04-23 01:23 44.92574 -100.31870 34391 ft 463 kts 106°
2026-04-23 01:24 44.91535 -100.22894 34401 ft 463 kts 106°
2026-04-23 01:24 44.90489 -100.13916 34406 ft 464 kts 106°
2026-04-23 01:25 44.89443 -100.05000 34416 ft 463 kts 106°
2026-04-23 01:25 44.88381 -99.96038 34421 ft 463 kts 106°
2026-04-23 01:26 44.87312 -99.87094 34434 ft 462 kts 106°
2026-04-23 01:26 44.86237 -99.78156 34439 ft 462 kts 106°
2026-04-23 01:27 44.85164 -99.69233 34447 ft 461 kts 106°
2026-04-23 01:27 44.84082 -99.60318 34452 ft 461 kts 106°
2026-04-23 01:28 44.82990 -99.51413 34448 ft 461 kts 106°
2026-04-23 01:28 44.81897 -99.42566 34452 ft 461 kts 105°
2026-04-23 01:29 44.80789 -99.33668 34453 ft 462 kts 105°
2026-04-23 01:29 44.79677 -99.24750 34459 ft 462 kts 105°
2026-04-23 01:30 44.78558 -99.15843 34465 ft 463 kts 105°
2026-04-23 01:30 44.77425 -99.06916 34468 ft 464 kts 105°
2026-04-23 01:31 44.76285 -98.97969 34474 ft 464 kts 105°
2026-04-23 01:31 44.75137 -98.89020 34481 ft 465 kts 105°
2026-04-23 01:32 44.73979 -98.80055 34485 ft 466 kts 105°
2026-04-23 01:32 44.72814 -98.71090 34492 ft 466 kts 105°
2026-04-23 01:33 44.71643 -98.62168 34503 ft 467 kts 105°
2026-04-23 01:33 44.70464 -98.53175 34515 ft 468 kts 105°
2026-04-23 01:34 44.69273 -98.44174 34521 ft 468 kts 105°
2026-04-23 01:34 44.68071 -98.35178 34526 ft 468 kts 105°
2026-04-23 01:35 44.66863 -98.26178 34533 ft 469 kts 105°
2026-04-23 01:35 44.65648 -98.17177 34535 ft 469 kts 105°
2026-04-23 01:36 44.64427 -98.08184 34539 ft 469 kts 105°
2026-04-23 01:36 44.63197 -97.99183 34545 ft 470 kts 105°
2026-04-23 01:37 44.61956 -97.90175 34556 ft 470 kts 105°
2026-04-23 01:37 44.60707 -97.81168 34569 ft 471 kts 105°
2026-04-23 01:38 44.59460 -97.72204 34581 ft 471 kts 105°
2026-04-23 01:38 44.58199 -97.63185 34590 ft 471 kts 105°
2026-04-23 01:39 44.56934 -97.54169 34602 ft 471 kts 105°
2026-04-23 01:39 44.55653 -97.45144 34599 ft 471 kts 105°
2026-04-23 01:40 44.54365 -97.36123 34604 ft 472 kts 105°
2026-04-23 01:40 44.53071 -97.27097 34613 ft 473 kts 105°
2026-04-23 01:41 44.51776 -97.18059 34629 ft 473 kts 105°
2026-04-23 01:41 44.50461 -97.09008 34643 ft 474 kts 105°
2026-04-23 01:42 44.49138 -96.99974 34654 ft 474 kts 105°
2026-04-23 01:42 44.47811 -96.90982 34661 ft 475 kts 105°
2026-04-23 01:43 44.46474 -96.81924 34661 ft 475 kts 105°
2026-04-23 01:43 44.45133 -96.72862 34662 ft 476 kts 105°
2026-04-23 01:44 44.43773 -96.63794 34661 ft 476 kts 105°
2026-04-23 01:44 44.42409 -96.54704 34663 ft 477 kts 105°
2026-04-23 01:45 44.41035 -96.45621 34661 ft 478 kts 105°
2026-04-23 01:45 44.39650 -96.36515 34665 ft 479 kts 105°
2026-04-23 01:46 44.38263 -96.27416 34670 ft 479 kts 105°
2026-04-23 01:46 44.36868 -96.18305 34673 ft 479 kts 105°
2026-04-23 01:47 44.35452 -96.09205 34670 ft 479 kts 105°
2026-04-23 01:47 44.34040 -96.00156 34672 ft 480 kts 105°
2026-04-23 01:48 44.32620 -95.91055 34684 ft 480 kts 105°
2026-04-23 01:48 44.31184 -95.81936 34686 ft 480 kts 105°
2026-04-23 01:49 44.29740 -95.72837 34715 ft 480 kts 105°
2026-04-23 01:49 44.28297 -95.63731 34715 ft 481 kts 104°
2026-04-23 01:50 44.26850 -95.54620 34717 ft 481 kts 105°
2026-04-23 01:50 44.25386 -95.45524 34715 ft 480 kts 105°
2026-04-23 01:51 44.23908 -95.36431 34716 ft 480 kts 105°
2026-04-23 01:51 44.22686 -95.28887 34716 ft 480 kts 104°
2026-04-23 01:52 44.20969 -95.18341 34727 ft 479 kts 105°
2026-04-23 01:52 44.19719 -95.10761 34739 ft 479 kts 105°
2026-04-23 01:53 44.18226 -95.01710 34742 ft 479 kts 105°
2026-04-23 01:53 44.16744 -94.92721 34744 ft 479 kts 104°
2026-04-23 01:54 44.15241 -94.83689 34747 ft 479 kts 105°
2026-04-23 01:54 44.13730 -94.74682 34752 ft 479 kts 105°
2026-04-23 01:55 44.12205 -94.65654 34751 ft 479 kts 105°
2026-04-23 01:55 44.10670 -94.56638 34751 ft 478 kts 105°
2026-04-23 01:56 44.09134 -94.47623 34749 ft 478 kts 105°
2026-04-23 01:56 44.07598 -94.38621 34752 ft 479 kts 105°
2026-04-23 01:57 44.06057 -94.29610 34752 ft 479 kts 105°
2026-04-23 01:57 44.04504 -94.20609 34754 ft 479 kts 105°
2026-04-23 01:58 44.02941 -94.11660 34765 ft 479 kts 105°
2026-04-23 01:58 44.01358 -94.02655 34768 ft 480 kts 105°
2026-04-23 01:59 43.99438 -93.93821 34765 ft 477 kts 116°
2026-04-23 01:59 43.96604 -93.85479 34782 ft 477 kts 117°
2026-04-23 02:00 43.93749 -93.77156 34788 ft 478 kts 117°
2026-04-23 02:00 43.90895 -93.68825 34788 ft 478 kts 117°
2026-04-23 02:01 43.88033 -93.60496 34791 ft 479 kts 117°
2026-04-23 02:01 43.85160 -93.52169 34798 ft 480 kts 118°
2026-04-23 02:02 43.82272 -93.43829 34809 ft 480 kts 118°
2026-04-23 02:02 43.79392 -93.35533 34826 ft 481 kts 118°
2026-04-23 02:03 43.76484 -93.27185 34826 ft 482 kts 118°
2026-04-23 02:03 43.73562 -93.18831 34825 ft 482 kts 118°
2026-04-23 02:04 43.70639 -93.10484 34840 ft 483 kts 118°
2026-04-23 02:04 43.67701 -93.02108 34845 ft 484 kts 118°
2026-04-23 02:05 43.64758 -92.93747 34842 ft 484 kts 118°
2026-04-23 02:05 43.61808 -92.85389 34847 ft 485 kts 118°
2026-04-23 02:06 43.58856 -92.77063 34848 ft 486 kts 118°
2026-04-23 02:06 43.55887 -92.68689 34850 ft 486 kts 118°
2026-04-23 02:07 43.52901 -92.60318 34856 ft 487 kts 118°
2026-04-23 02:07 43.49905 -92.51951 34866 ft 487 kts 118°
2026-04-23 02:08 43.46898 -92.43580 34871 ft 488 kts 118°
2026-04-23 02:08 43.43877 -92.35213 34874 ft 488 kts 118°
2026-04-23 02:09 43.40851 -92.26834 34880 ft 489 kts 118°
2026-04-23 02:09 43.37818 -92.18460 34880 ft 489 kts 118°
2026-04-23 02:10 43.34775 -92.10086 34885 ft 490 kts 118°
2026-04-23 02:10 43.31729 -92.01712 34888 ft 490 kts 118°
2026-04-23 02:11 43.28667 -91.93340 34891 ft 490 kts 118°
2026-04-23 02:11 43.25598 -91.84980 34896 ft 491 kts 118°
2026-04-23 02:12 43.22530 -91.76623 34893 ft 491 kts 118°
2026-04-23 02:12 43.19444 -91.68250 34896 ft 491 kts 118°
2026-04-23 02:13 43.16419 -91.59916 34894 ft 492 kts 117°
2026-04-23 02:13 43.13524 -91.51421 34893 ft 492 kts 116°
2026-04-23 02:14 43.10648 -91.42913 34906 ft 492 kts 116°
2026-04-23 02:14 43.07728 -91.34445 34908 ft 492 kts 116°
2026-04-23 02:15 43.03292 -91.21789 34909 ft 492 kts 116°
2026-04-23 02:16 43.00350 -91.13331 34905 ft 492 kts 116°
2026-04-23 02:16 42.97414 -91.04873 34907 ft 493 kts 116°
2026-04-23 02:17 42.94475 -90.96433 34916 ft 492 kts 116°
2026-04-23 02:17 42.91535 -90.88051 34917 ft 492 kts 116°
2026-04-23 02:18 42.88562 -90.79638 34917 ft 493 kts 116°
2026-04-23 02:18 42.85578 -90.71219 34937 ft 493 kts 116°
2026-04-23 02:19 42.82599 -90.62805 34945 ft 493 kts 116°
2026-04-23 02:19 42.79627 -90.54394 34953 ft 493 kts 116°
2026-04-23 02:20 42.76634 -90.45996 34961 ft 493 kts 116°
2026-04-23 02:20 42.73627 -90.37607 34960 ft 493 kts 116°
2026-04-23 02:21 42.70616 -90.29214 34962 ft 493 kts 116°
2026-04-23 02:21 42.67602 -90.20841 34949 ft 491 kts 116°
2026-04-23 02:21 42.66111 -90.16726 34938 ft 480 kts 116°
2026-04-23 02:22 42.64641 -90.12676 34936 ft 476 kts 116°
2026-04-23 02:22 42.61710 -90.04628 34930 ft 474 kts 116°
2026-04-23 02:23 42.58797 -89.96658 34935 ft 474 kts 116°
2026-04-23 02:23 42.57334 -89.92658 34545 ft 473 kts 116°
2026-04-23 02:23 42.55871 -89.88652 33915 ft 476 kts 116°
2026-04-23 02:23 42.54397 -89.84616 33166 ft 478 kts 116°
2026-04-23 02:24 42.52949 -89.80557 32441 ft 479 kts 112°
2026-04-23 02:24 42.51827 -89.76296 31742 ft 479 kts 104°
2026-04-23 02:24 42.51136 -89.71886 31044 ft 479 kts 98°
2026-04-23 02:24 42.50601 -89.67436 30381 ft 478 kts 98°
2026-04-23 02:25 42.50065 -89.62996 29667 ft 478 kts 98°
2026-04-23 02:25 42.49524 -89.58560 28880 ft 476 kts 98°
2026-04-23 02:25 42.48978 -89.54133 28144 ft 475 kts 98°
2026-04-23 02:25 42.48433 -89.49734 27413 ft 471 kts 98°
2026-04-23 02:26 42.47897 -89.45433 26684 ft 455 kts 98°
2026-04-23 02:26 42.47379 -89.41269 25998 ft 441 kts 98°
2026-04-23 02:26 42.46872 -89.37192 25326 ft 438 kts 98°
2026-04-23 02:26 42.46373 -89.33124 24668 ft 438 kts 98°
2026-04-23 02:27 42.45882 -89.29101 24017 ft 427 kts 98°
2026-04-23 02:27 42.45405 -89.25195 23349 ft 415 kts 98°
2026-04-23 02:27 42.44935 -89.21375 22494 ft 409 kts 98°
2026-04-23 02:27 42.44466 -89.17597 21585 ft 404 kts 98°
2026-04-23 02:28 42.44001 -89.13865 20707 ft 400 kts 98°
2026-04-23 02:28 42.43539 -89.10184 19854 ft 395 kts 97°
2026-04-23 02:28 42.43075 -89.06546 19025 ft 389 kts 97°
2026-04-23 02:28 42.42615 -89.02955 18208 ft 384 kts 97°
2026-04-23 02:29 42.42064 -88.99439 17276 ft 387 kts 107°
2026-04-23 02:29 42.40751 -88.96135 16386 ft 415 kts 127°
2026-04-23 02:29 42.38662 -88.93458 15504 ft 422 kts 145°
2026-04-23 02:29 42.36008 -88.91756 14652 ft 425 kts 164°
2026-04-23 02:30 42.33088 -88.91176 13995 ft 423 kts 176°
2026-04-23 02:30 42.30195 -88.90940 13701 ft 411 kts 176°
2026-04-23 02:30 42.27362 -88.90719 13385 ft 406 kts 176°
2026-04-23 02:30 42.24552 -88.90500 13072 ft 403 kts 176°
2026-04-23 02:31 42.21749 -88.90285 12765 ft 401 kts 176°
2026-04-23 02:31 42.18974 -88.90073 12444 ft 399 kts 176°
2026-04-23 02:31 42.16209 -88.89863 12063 ft 396 kts 176°
2026-04-23 02:31 42.13464 -88.89656 11688 ft 393 kts 176°
2026-04-23 02:32 42.10747 -88.89450 11317 ft 390 kts 176°
2026-04-23 02:32 42.08044 -88.89243 10953 ft 387 kts 176°
2026-04-23 02:32 42.05367 -88.89036 10805 ft 384 kts 176°
2026-04-23 02:32 42.02693 -88.88830 10809 ft 385 kts 176°
2026-04-23 02:33 42.00146 -88.88635 10812 ft 385 kts 176°
2026-04-23 02:33 41.97480 -88.88333 10811 ft 385 kts 169°
2026-04-23 02:33 41.95044 -88.87113 10810 ft 364 kts 148°
2026-04-23 02:33 41.93213 -88.84949 10806 ft 342 kts 126°
2026-04-23 02:34 41.92362 -88.82908 10808 ft 327 kts 108°
2026-04-23 02:34 41.92060 -88.81415 10805 ft 317 kts 99°
2026-04-23 02:34 41.91812 -88.79277 10808 ft 305 kts 97°
2026-04-23 02:34 41.91594 -88.76496 10774 ft 298 kts 88°
2026-04-23 02:35 41.91759 -88.73748 10486 ft 295 kts 82°
2026-04-23 02:35 41.92021 -88.71015 10200 ft 293 kts 82°
2026-04-23 02:35 41.92298 -88.68312 9916 ft 291 kts 82°
2026-04-23 02:35 41.92584 -88.65628 9608 ft 290 kts 82°
2026-04-23 02:36 41.92876 -88.62946 9298 ft 289 kts 81°
2026-04-23 02:36 41.93170 -88.60278 8997 ft 288 kts 81°
2026-04-23 02:36 41.93467 -88.57632 8744 ft 287 kts 81°
2026-04-23 02:36 41.93769 -88.54986 8517 ft 286 kts 81°
2026-04-23 02:37 41.94073 -88.52348 8294 ft 285 kts 81°
2026-04-23 02:37 41.94379 -88.49725 8062 ft 284 kts 81°
2026-04-23 02:37 41.94584 -88.47988 7912 ft 283 kts 81°
2026-04-23 02:37 41.94999 -88.44505 7626 ft 282 kts 81°
2026-04-23 02:38 41.95207 -88.42782 7483 ft 281 kts 81°
2026-04-23 02:38 41.95305 -88.41984 7401 ft 281 kts 81°
2026-04-23 02:38 41.95354 -88.41527 7378 ft 279 kts 84°
2026-04-23 02:39 41.95600 -88.38938 7165 ft 279 kts 82°
2026-04-23 02:39 41.95917 -88.36365 6953 ft 279 kts 81°
2026-04-23 02:39 41.96293 -88.33784 6483 ft 285 kts 82°
2026-04-23 02:39 41.96436 -88.32031 6211 ft 285 kts 88°
2026-04-23 02:40 41.96459 -88.28504 5705 ft 284 kts 92°
2026-04-23 02:40 41.96452 -88.25850 5329 ft 284 kts 91°
2026-04-23 02:40 41.96459 -88.24055 5086 ft 284 kts 91°
2026-04-23 02:40 41.96474 -88.21400 4717 ft 284 kts 91°
2026-04-23 02:41 41.96487 -88.18749 4341 ft 285 kts 91°
2026-04-23 02:41 41.96498 -88.16083 3963 ft 285 kts 91°
2026-04-23 02:41 41.96502 -88.15172 3837 ft 285 kts 91°
2026-04-23 02:43 41.96508 -88.13851 3660 ft 284 kts 91°
2026-04-23 02:43 41.96518 -88.11192 3290 ft 284 kts 91°
2026-04-23 02:43 41.96519 -88.10899 3247 ft 284 kts 91°
2026-04-23 02:44 41.96523 -88.09771 3087 ft 284 kts 91°
2026-04-23 02:44 41.96524 -88.09602 3062 ft 284 kts 91°
2026-04-23 02:44 41.96525 -88.09229 3008 ft 284 kts 91°
2026-04-23 02:44 41.96525 -88.09005 2978 ft 284 kts 91°